Regional Weather Roundup
Issued by NWS Albany, NY

Home | Current Version | Previous Version | Graphics & Text | Print | Product List | Glossary Off
Versions: 1 2 3 4 5 6 7 8 9 10 11 12 13 14 15 16 17 18 19 20 21 22 23 24 25 26 27 28 29 30 31 32 33 34 35 36 37 38 39 40 41 42 43 44 45 46 47 48 49 50

000
ASUS41 KALY 192010
RWRALY

NEW YORK STATE HOURLY WEATHER ROUNDUP
NATIONAL WEATHER SERVICE ALBANY NY
400 PM EDT SUN APR 19 2015

NOTE: "FAIR" INDICATES FEW OR NO CLOUDS BELOW 12,000 FEET WITH NO
SIGNIFICANT WEATHER AND/OR NO OBSTRUCTIONS TO VISIBILITY.

NYZ032-033-038>043-046>054-057>066-NYZ062>081-192100-
EAST


CITY           SKY/WX    TMP DP  RH WIND       PRES   REMARKS
ALBANY         PTSUNNY   60  26  27 N5        30.17F
GLENS FALLS    SUNNY     59  25  27 E8        30.18F
POUGHKEEPSIE   SUNNY     66  29  24 CALM      30.13F
NEWBURGH       MOSUNNY   63  30  29 E7        30.15F
MONTGOMERY     MOSUNNY   66  31  27 N6        30.12F
WHITE PLAINS   MOSUNNY   57  34  41 S9        30.18F
ISLIP          PTSUNNY   52  33  48 SE16      30.21F
NEW YORK CITY  PTSUNNY   56  33  42 SE14G20   30.19F
CENTRAL PARK   SUNNY     57  32  38 S7        30.22F
$$

NYZ005>009-017-018-044>046-055-056-192100-
CENTRAL


CITY           SKY/WX    TMP DP  RH WIND       PRES   REMARKS
FULTON         MOSUNNY   63  25  23 VRB7      30.08F
SYRACUSE       PTSUNNY   63  31  30 E14       30.07F
ROME           MOSUNNY   62  19  19 SE12      30.13F
ELMIRA         MOSUNNY   69  28  21 E12G20    30.01F
BINGHAMTON     MOSUNNY   63  22  20 VRB6      30.06F
MONTICELLO     MOSUNNY   63  23  22 SE8       30.13F
$$

NYZ026>034-041>043-192100-
NORTH


CITY           SKY/WX    TMP DP  RH WIND       PRES   REMARKS
WATERTOWN      MOSUNNY   62  25  24 E8        30.10F
FORT DRUM      NOT AVBL
MASSENA        SUNNY     55  25  31 E10       30.19F
SARANAC LAKE   SUNNY     54  14  20 NE10      30.14F
PLATTSBURGH    SUNNY     51  24  34 VRB6      30.23F
$$

NYZ001>004-010>016-019>021-192100-
WEST


CITY           SKY/WX    TMP DP  RH WIND       PRES   REMARKS
NIAGARA FALLS  PTSUNNY   58  36  43 E24       29.95F
BUFFALO        PTSUNNY   62  37  39 E20G26    29.94F
DUNKIRK        PTSUNNY   73  33  23 E16G28    29.89F
JAMESTOWN      PTSUNNY   70  30  23 S15       29.92F
WELLSVILLE     MOSUNNY   67  24  19 SE13G23   29.99F
ROCHESTER      PTSUNNY   56  34  43 NE17      30.03F
PENN YAN       MOSUNNY   65  29  25 NE6       30.03F
$$

             KEY
       WCI = WIND CHILL INDEX
       VSB = VISIBILITY
       HX  = HEAT INDEX
$$



USA.gov is the U.S. government's official web portal to all federal, state and local government web resources and services.